星链-5248 (STARLINK-5248 )

导读

STARLINK-5248是美国太空探索技术公司星链计划中的一颗卫星,于2022年10月28日发射入轨,归属美国SpaceX的星链卫星星座网络。它主要服务于全球范围的低延迟宽带互联网覆盖,填补偏远地区网络空白,为用户提供高速卫星互联网接入服务,是星链大规模组网部署中的组成单元。

Basic Information
目录编号:
54174
目录名称:
STARLINK-5248
国际标识:
2022-141T
轨道中心:
EARTH
卫星名称:
星链-5248
卫星全名:
星链-5248 (STARLINK-5248 )
卫星状态:
在轨 (已飞行1326 天)
发射日期:
2022-10-28 UTC
国别 :
美国 (US)
星等 :
--
Orbit Information
数据来源 国际轨道数据 AOE轨道数据
星历时间 2026-06-14T19:22:25+0800
20小时前
查看轨道信息
2026-06-11T06:00:00+0800
4天前
查看轨道信息
半长轴 6917.857km 6917.882km
偏心率 0.0001203 0.0001047
轨道倾角 53.161° 53.162°
近地点辐角 94.496° 110.506°
升交点赤经 234.301° 250.296°
平近点角 265.616° 356.736°
近地点 538.887km 539.02km
远地点 540.553km 540.47km
周期 95.437分钟 95.438分钟
每日圈数 15.088478 15.088395
Detailed Information
固有亮度:
5
最大亮度:
2.5
卫星平台:
Starlink v1.5
覆盖范围:
全球
运营商:
太空探索技术公司
运营商所在国:
美国
制造商(研发单位):
太空探索技术公司
制造商所在国:
美国
使用方式:
暂无
Satellite Introduction
星链(Starlink)计划是由太空探索技术公司(SpaceX)提出的一个巨型低轨卫星互联网星座项目,计划在2019年至2024年间在太空搭建由约1.2万颗卫星组成的“星链”网络,其中1584颗将部署在地球上空550千米处的近地轨道,并从2020年开始工作。该卫星仍在工作。
2D Orbit Map
3D Orbit Map
Orbit Altitude Analysis Chart
Orbit Inclination Analysis Chart
Orbit Comprehensive Analysis Chart
View Comprehensive Chart